When you browse on this site, cookies collect data to enhance your experience and personalize the content and advertising you see.
Visit our Privacy Policy to learn more. By continuing to use the site, you agree to this use of cookies and data.
  • In Deutschland
  • Länderverzeichnis
  • Für 7 Tage
  • Wassertemperatur
  • Satellitenkarten
  • Wetterkarte
  • Widgets
  • user-avatar
    Anmelden

    Stündliche Wetter Newcastle

    Heute, 22 Januar, Dienstag

    Zeit Temperatur Niederschläge Wind Luftdruck Luftfeuchtigkeit
    00:00 +23°C° 0.1 mm 2 m/S 761 mmHg 97%
    01:00 +23°C° 0.1 mm 2 m/S 761 mmHg 97%
    02:00 +23°C° 0 mm 2 m/S 761 mmHg 98%
    03:00 +23°C° 0 mm 2 m/S 761 mmHg 98%
    04:00 +23°C° 0 mm 2 m/S 760 mmHg 98%
    05:00 +23°C° 0 mm 2 m/S 761 mmHg 96%
    06:00 +24°C° 0 mm 2 m/S 761 mmHg 94%
    07:00 +25°C° 0 mm 2 m/S 761 mmHg 92%
    08:00 +28°C° 0 mm 2 m/S 761 mmHg 78%
    09:00 +31°C° 0 mm 1 m/S 761 mmHg 65%
    10:00 +32°C° 0 mm 0 m/S 761 mmHg 50%
    11:00 +35°C° 0 mm 1 m/S 760 mmHg 46%
    12:00 +38°C° 0 mm 2 m/S 760 mmHg 41%
    13:00 +39°C° 0 mm 3 m/S 759 mmHg 37%
    14:00 +40°C° 0 mm 4 m/S 759 mmHg 39%
    15:00 +38°C° 0 mm 4 m/S 759 mmHg 41%
    16:00 +37°C° 0 mm 5 m/S 758 mmHg 42%
    17:00 +35°C° 0 mm 5 m/S 758 mmHg 52%
    18:00 +33°C° 0 mm 5 m/S 758 mmHg 61%
    19:00 +29°C° 0 mm 4 m/S 758 mmHg 70%
    20:00 +28°C° 0 mm 4 m/S 758 mmHg 74%
    21:00 +27°C° 0 mm 4 m/S 759 mmHg 79%
    22:00 +26°C° 0 mm 3 m/S 759 mmHg 83%
    23:00 +26°C° 0 mm 3 m/S 758 mmHg 84%

    Morgen, 23 Januar, Mittwoch

    Zeit Temperatur Niederschläge Wind Luftdruck Luftfeuchtigkeit
    00:00 +25°C° 0 mm 2 m/S 758 mmHg 85%
    01:00 +25°C° 0 mm 2 m/S 758 mmHg 86%
    02:00 +25°C° 0 mm 2 m/S 757 mmHg 86%
    03:00 +24°C° 0 mm 2 m/S 757 mmHg 85%
    04:00 +24°C° 0 mm 2 m/S 757 mmHg 85%
    05:00 +26°C° 0 mm 2 m/S 757 mmHg 79%
    06:00 +27°C° 0 mm 2 m/S 758 mmHg 73%
    07:00 +28°C° 0 mm 1 m/S 758 mmHg 67%
    08:00 +31°C° 0 mm 2 m/S 758 mmHg 58%
    09:00 +35°C° 0 mm 2 m/S 758 mmHg 48%
    10:00 +38°C° 0 mm 2 m/S 758 mmHg 39%
    11:00 +37°C° 0 mm 3 m/S 758 mmHg 40%
    12:00 +36°C° 0 mm 3 m/S 758 mmHg 42%
    13:00 +36°C° 0 mm 4 m/S 758 mmHg 44%
    14:00 +34°C° 0 mm 5 m/S 758 mmHg 50%
    15:00 +33°C° 0 mm 5 m/S 758 mmHg 57%
    16:00 +32°C° 0 mm 6 m/S 757 mmHg 63%
    17:00 +29°C° 0 mm 5 m/S 758 mmHg 68%
    18:00 +27°C° 0 mm 5 m/S 758 mmHg 73%
    19:00 +25°C° 0 mm 5 m/S 759 mmHg 77%
    20:00 +25°C° 0 mm 4 m/S 759 mmHg 79%
    21:00 +24°C° 0 mm 3 m/S 760 mmHg 81%
    22:00 +24°C° 0 mm 2 m/S 760 mmHg 83%
    23:00 +22°C° 0 mm 3 m/S 760 mmHg 86%

    übermorgen, 24 Januar, Donnerstag

    Zeit Temperatur Niederschläge Wind Luftdruck Luftfeuchtigkeit
    00:00 +22°C° 0 mm 3 m/S 760 mmHg 88%
    01:00 +22°C° 0 mm 3 m/S 760 mmHg 90%
    02:00 +22°C° 0 mm 4 m/S 760 mmHg 90%
    03:00 +22°C° 0 mm 4 m/S 759 mmHg 89%
    04:00 +22°C° 0 mm 4 m/S 759 mmHg 89%
    05:00 +22°C° 0 mm 4 m/S 760 mmHg 87%
    06:00 +23°C° 0 mm 4 m/S 760 mmHg 84%
    07:00 +23°C° 0 mm 4 m/S 761 mmHg 82%
    08:00 +25°C° 0 mm 4 m/S 761 mmHg 79%
    09:00 +25°C° 0 mm 4 m/S 761 mmHg 77%
    10:00 +26°C° 0 mm 4 m/S 761 mmHg 75%
    11:00 +28°C° 0 mm 4 m/S 761 mmHg 68%
    12:00 +30°C° 0 mm 4 m/S 760 mmHg 62%
    13:00 +33°C° 0 mm 5 m/S 760 mmHg 55%
    14:00 +32°C° 0 mm 5 m/S 759 mmHg 58%
    15:00 +32°C° 0 mm 5 m/S 759 mmHg 61%
    16:00 +30°C° 0 mm 5 m/S 759 mmHg 65%
    17:00 +28°C° 0 mm 4 m/S 759 mmHg 73%
    18:00 +27°C° 0 mm 4 m/S 759 mmHg 81%
    19:00 +25°C° 0 mm 3 m/S 760 mmHg 90%
    20:00 +25°C° 0 mm 2 m/S 760 mmHg 93%
    21:00 +24°C° 0 mm 2 m/S 761 mmHg 96%
    22:00 +23°C° 0 mm 2 m/S 761 mmHg 99%
    23:00 +24°C° 0 mm 1 m/S 761 mmHg 98%

    25 Januar, Freitag

    Zeit Temperatur Niederschläge Wind Luftdruck Luftfeuchtigkeit
    00:00 +24°C° 0 mm 1 m/S 760 mmHg 97%
    01:00 +24°C° 0 mm 1 m/S 760 mmHg 96%
    02:00 +24°C° 0 mm 1 m/S 760 mmHg 96%
    03:00 +24°C° 0 mm 1 m/S 760 mmHg 95%
    04:00 +24°C° 0 mm 1 m/S 760 mmHg 95%
    05:00 +23°C° 0 mm 0 m/S 760 mmHg 92%
    06:00 +24°C° 0 mm 0 m/S 760 mmHg 89%
    07:00 +24°C° 0 mm 0 m/S 760 mmHg 86%
    08:00 +28°C° 0 mm 1 m/S 760 mmHg 78%
    09:00 +30°C° 0 mm 1 m/S 760 mmHg 71%
    10:00 +31°C° 0 mm 1 m/S 760 mmHg 64%
    11:00 +35°C° 0 mm 2 m/S 759 mmHg 55%
    12:00 +38°C° 0 mm 2 m/S 758 mmHg 46%
    13:00 +40°C° 0 mm 2 m/S 758 mmHg 38%
    14:00 +40°C° 0 mm 3 m/S 757 mmHg 38%
    15:00 +40°C° 0 mm 4 m/S 756 mmHg 38%
    16:00 +40°C° 0 mm 5 m/S 756 mmHg 38%
    17:00 +36°C° 0 mm 5 m/S 756 mmHg 47%
    18:00 +33°C° 0 mm 5 m/S 756 mmHg 57%
    19:00 +30°C° 0 mm 5 m/S 756 mmHg 66%
    20:00 +29°C° 0 mm 5 m/S 757 mmHg 70%
    21:00 +28°C° 0 mm 5 m/S 757 mmHg 73%
    22:00 +27°C° 0 mm 4 m/S 757 mmHg 77%
    23:00 +27°C° 0 mm 4 m/S 757 mmHg 79%

    26 Januar, Samstag

    Zeit Temperatur Niederschläge Wind Luftdruck Luftfeuchtigkeit
    00:00 +26°C° 0 mm 4 m/S 756 mmHg 81%
    01:00 +26°C° 0 mm 3 m/S 756 mmHg 83%
    02:00 +26°C° 0 mm 3 m/S 756 mmHg 81%
    03:00 +25°C° 0 mm 3 m/S 756 mmHg 80%
    04:00 +25°C° 0 mm 2 m/S 755 mmHg 79%
    05:00 +27°C° 0 mm 2 m/S 756 mmHg 72%
    06:00 +28°C° 0 mm 2 m/S 756 mmHg 65%
    07:00 +30°C° 0 mm 2 m/S 757 mmHg 58%
    08:00 +34°C° 0 mm 2 m/S 757 mmHg 50%
    09:00 +36°C° 0 mm 2 m/S 757 mmHg 42%
    10:00 +39°C° 0 mm 3 m/S 757 mmHg 35%
    11:00 +42°C° 0 mm 3 m/S 756 mmHg 31%
    12:00 +44°C° 0 mm 4 m/S 755 mmHg 27%
    13:00 +47°C° 0 mm 4 m/S 755 mmHg 23%
    14:00 +46°C° 0 mm 5 m/S 754 mmHg 25%
    15:00 +45°C° 0 mm 5 m/S 754 mmHg 27%
    16:00 +44°C° 0 mm 6 m/S 754 mmHg 28%
    17:00 +41°C° 0 mm 6 m/S 754 mmHg 35%
    18:00 +38°C° 0 mm 6 m/S 754 mmHg 42%
    19:00 +35°C° 0 mm 5 m/S 754 mmHg 49%
    20:00 +34°C° 0 mm 5 m/S 754 mmHg 52%
    21:00 +33°C° 0 mm 5 m/S 754 mmHg 56%
    22:00 +32°C° 0 mm 5 m/S 754 mmHg 59%
    23:00 +30°C° 0.1 mm 5 m/S 754 mmHg 60%

    27 Januar, Sonntag

    Zeit Temperatur Niederschläge Wind Luftdruck Luftfeuchtigkeit
    00:00 +29°C° 0.1 mm 4 m/S 754 mmHg 62%
    01:00 +29°C° 0.1 mm 3 m/S 754 mmHg 64%
    02:00 +29°C° 0 mm 2 m/S 754 mmHg 63%
    03:00 +28°C° 0 mm 2 m/S 754 mmHg 63%
    04:00 +28°C° 0 mm 1 m/S 754 mmHg 62%
    05:00 +29°C° 0 mm 2 m/S 754 mmHg 62%
    06:00 +29°C° 0 mm 2 m/S 755 mmHg 62%
    07:00 +29°C° 0 mm 3 m/S 755 mmHg 63%
    08:00 +33°C° 0 mm 3 m/S 755 mmHg 53%
    09:00 +36°C° 0 mm 3 m/S 755 mmHg 44%
    10:00 +39°C° 0 mm 3 m/S 755 mmHg 35%
    11:00 +40°C° 0 mm 3 m/S 755 mmHg 32%
    12:00 +43°C° 0 mm 3 m/S 754 mmHg 28%
    13:00 +44°C° 0 mm 3 m/S 754 mmHg 25%
    14:00 +43°C° 0 mm 3 m/S 753 mmHg 29%
    15:00 +40°C° 0 mm 3 m/S 753 mmHg 33%
    16:00 +40°C° 0 mm 4 m/S 753 mmHg 37%
    17:00 +35°C° 2 mm 3 m/S 753 mmHg 54%
    18:00 +31°C° 2 mm 2 m/S 754 mmHg 71%
    19:00 +27°C° 2 mm 1 m/S 754 mmHg 88%
    20:00 +27°C° 7.5 mm 1 m/S 755 mmHg 90%
    21:00 +27°C° 7.5 mm 2 m/S 756 mmHg 93%
    22:00 +26°C° 7.5 mm 2 m/S 756 mmHg 96%
    23:00 +26°C° 0.6 mm 2 m/S 756 mmHg 96%
    Mehr zeigen